Content
SEND FEEDBACK

Daily
Averages
Monthly
Summary
United States of America

WILMINGTON, NORTH CAROLINA


Home > North America > United States > North Carolina
Elevation: 72 feet     Latitude: 34 16N     Longitude: 077 54W

WEATHER
 
SELECT A DAY
Number of Records: 212,236;   Date Range: 1/1/95 - 10/18/14
 
SHARE

PRINT THIS DATA

[ ← Previous Day ]
WEATHER ALMANAC - APRIL 7, 2014
[ Next Day → ]
[ °C ]   °F
Weather ElementAverageHighLow
Temperature68.3 °F80.6 °F (1:51 pm)59 °F (12:53 am)
Dewpoint61.1 °F68 °F (12:53 pm)51.1 °F (12:53 am)
Humidity78.4 %94 % (6:48 am)61 % (1:51 pm)
Barometer29.92 in30.04 in (12:53 am)29.78 in (11:53 pm)
Wind Speed9.9 mph23 mph (1:51 pm)
Wind Gust33.4 mph (1:51 pm)
Weather ElementAverage
Visibility8.7 mi
Wind DirectionSE (129.7 °)

Weather ElementTotal
Precipitation0.08 in
Cooling Degree Days4.8 (Base 65)
Growing Degree Days19.8 (Base 50)
Averaged from 38 records on April 7, 2014
WEATHER CONDITIONS BREAKOUT
WIND DIRECTION BREAKOUT
WEATHER BY HOUR - APRIL 7, 2014
[ °C ]   °F
Local TimeTemperatureDewpointHumidityBarometerVisibilityWind DirectionWind SpeedGust SpeedPrecipitationEventsConditions
12:53 AM59.0 °F51.1 °F75 %30.04 in10.0 miENE (70°)12.7 mph18.4 mphOvercast
1:00 AM59.0 °F51.1 °F75 %30.04 in10.0 miENE (70°)11.5 mphOvercast
1:13 AM59.0 °F52.0 °F78 %30.03 in10.0 miENE (70°)11.5 mph20.7 mphOvercast
1:53 AM60.1 °F53.1 °F78 %30.02 in10.0 miENE (70°)11.5 mphOvercast
2:53 AM61.0 °F55.0 °F81 %29.99 in10.0 miENE (60°)11.5 mphOvercast
2:59 AM61.0 °F55.0 °F81 %29.98 in10.0 miENE (60°)10.4 mphMostly Cloudy
3:21 AM61.0 °F55.9 °F83 %29.98 in10.0 miENE (60°)9.2 mphMostly Cloudy
3:53 AM60.1 °F54.0 °F80 %29.97 in10.0 miNE (40°)6.9 mphOvercast
4:17 AM60.1 °F54.0 °F80 %29.95 in10.0 miNE (50°)6.9 mphOvercast
4:42 AM63.0 °F57.9 °F84 %29.94 in9.0 miENE (60°)5.8 mphOvercast
4:53 AM63.0 °F57.9 °F84 %29.94 in9.0 miENE (70°)6.9 mphOvercast
5:53 AM63.0 °F60.1 °F90 %29.94 in7.0 miEast (90°)8.1 mphOvercast
6:48 AM62.6 °F60.8 °F94 %29.95 in7.0 miCalmOvercast
6:53 AM63.0 °F61.0 °F93 %29.95 in6.0 miCalmOvercast
7:50 AM62.6 °F60.8 °F94 %29.95 in2.5 miENE (70°)3.5 mphOvercast
7:53 AM63.0 °F60.1 °F90 %29.96 in2.0 miCalmOvercast
8:32 AM64.0 °F61.0 °F90 %29.93 in3.0 miESE (110°)4.6 mphMostly Cloudy
8:42 AM64.0 °F61.0 °F90 %29.93 in4.0 miESE (120°)3.5 mphScattered Clouds
8:53 AM64.9 °F61.0 °F87 %29.92 in6.0 miSE (130°)4.6 mphClear
9:53 AM68.0 °F62.1 °F81 %29.94 in10.0 miSSE (160°)8.1 mphMostly Cloudy
10:53 AM73.0 °F64.0 °F73 %29.94 in10.0 miSouth (170°)9.2 mphScattered Clouds
11:43 AM75.9 °F66.0 °F71 %29.91 in10.0 miSSE (150°)6.9 mphMostly Cloudy
11:53 AM75.9 °F66.0 °F71 %29.91 in9.0 miSouth (180°)8.1 mph0.00 inRainLight Rain
12:53 PM78.1 °F68.0 °F71 %29.91 in10.0 miSouth (190°)15.0 mph23.0 mph0.01 inMostly Cloudy
1:51 PM80.6 °F66.2 °F61 %29.89 in10.0 miSSW (210°)23.0 mph33.4 mphMostly Cloudy
1:53 PM80.1 °F66.0 °F62 %29.89 in10.0 miSW (220°)20.7 mph33.4 mphMostly Cloudy
2:38 PM78.1 °F66.9 °F68 %29.88 in10.0 miSSW (210°)19.6 mph25.3 mphOvercast
2:51 PM78.8 °F66.2 °F65 %29.87 in10.0 miSW (220°)13.8 mph26.5 mphMostly Cloudy
2:53 PM78.1 °F66.0 °F66 %29.87 in10.0 miSSW (210°)17.3 mph26.5 mphMostly Cloudy
3:53 PM78.8 °F64.4 °F61 %29.85 in10.0 miSSW (200°)16.1 mph24.2 mphClear
4:53 PM77.0 °F64.0 °F64 %29.83 in10.0 miSW (220°)15.0 mph27.6 mphClear
5:53 PM75.9 °F64.9 °F69 %29.83 in10.0 miSW (220°)17.3 mph27.6 mphPartly Cloudy
6:53 PM73.9 °F64.0 °F71 %29.84 in10.0 miSW (220°)9.2 mphMostly Cloudy
7:53 PM73.0 °F64.0 °F73 %29.83 in10.0 miWSW (250°)9.2 mphMostly Cloudy
8:53 PM70.0 °F64.0 °F81 %29.85 in9.0 miWSW (240°)5.8 mph0.00 inRainLight Rain
9:53 PM68.0 °F64.9 °F90 %29.82 in7.0 miSSE (160°)6.9 mph0.03 inRainLight Rain
10:53 PM70.0 °F64.9 °F84 %29.80 in10.0 miSSE (150°)11.5 mph19.6 mph0.01 inRainLight Rain
11:53 PM68.0 °F64.9 °F90 %29.78 in10.0 miSSE (150°)12.7 mph19.6 mph0.03 inRainLight Rain
Hourly data recorded from KILM, located miles away from Wilmington, North Carolina







STORIES FROM OUR PARTNERS